Weather History for KAFK - October, 2013

Change the Weather History Date:

Friday, October 25, 2013

  Actual Average (KSDA) Record (KSDA)
Temperature  
Mean Temperature 43 °F -  
Max Temperature 59 °F 62 °F 79 °F (1952)
Min Temperature 27 °F 40 °F 23 °F (2005)
Degree Days  
Heating Degree Days 22    
Moisture  
Dew Point 27 °F    
Average Humidity 55    
Maximum Humidity 84    
Minimum Humidity 33    
Precipitation  
Precipitation 0.00 in - - ()
Sea Level Pressure  
Sea Level Pressure 30.28 in    
Wind  
Wind Speed 9 mph (SW)    
Max Wind Speed 21 mph    
Max Gust Speed 26 mph    
Visibility 10 miles    
Events      
Averages and records for this station are not official NWS values.
T = Trace of Precipitation, MM = Missing Value Source: NWS Daily Summary

Daily Weather History Graph

Daily Weather History Graph

Search for Another Location

Airport or City:

Trip Planner

Search our weather history database for the weather conditions in past years. The results will help you decide how hot, cold, wet, or windy it might be!

Date:

Astronomy

Oct. 25, 2013 Rise Set
Actual Time 7:45 AM CDT 6:28 PM CDT
Civil Twilight 7:17 AM CDT 6:56 PM CDT
Nautical Twilight 6:45 AM CDT 7:28 PM CDT
Astronomical Twilight 6:14 AM CDT 8:00 PM CDT
Moon 11:48 PM CDT (10/25) 1:27 PM CDT (10/25)
Length of Visible Light 11h 38m
Length of Day
10h 42m
Waning Gibbous, 62% of the Moon is Illuminated
Oct 25
Waning Gibbous
Oct 26
Last Quarter
Nov 3
New
Nov 9
First Quarter
Nov 17
Full

Hourly Weather History & Observations

Time (CDT) Temp. Windchill Dew Point Humidity Pressure Visibility Wind Dir Wind Speed Gust Speed Precip Events Conditions
12:15 AM 34.3 °F 30.2 °F 23.2 °F 64% 30.41 in 10.0 mi SW 4.6 mph - N/A   Clear
12:35 AM 33.8 °F 28.6 °F 23.9 °F 67% 30.41 in 10.0 mi SW 5.8 mph - N/A   Clear
12:55 AM 34.0 °F 28.0 °F 23.9 °F 67% 30.42 in 10.0 mi SW 6.9 mph - N/A   Clear
1:15 AM 32.9 °F 26.7 °F 23.7 °F 69% 30.42 in 10.0 mi SW 6.9 mph - N/A   Clear
1:35 AM 32.0 °F 25.6 °F 23.9 °F 72% 30.42 in 10.0 mi WSW 6.9 mph - N/A   Clear
1:55 AM 31.3 °F 25.6 °F 23.9 °F 74% 30.42 in 10.0 mi WSW 5.8 mph - N/A   Clear
2:15 AM 31.1 °F 26.4 °F 23.9 °F 75% 30.42 in 10.0 mi SW 4.6 mph - N/A   Clear
2:35 AM 30.9 °F 24.3 °F 23.2 °F 73% 30.42 in 10.0 mi SW 6.9 mph - N/A   Clear
2:55 AM 32.0 °F 26.4 °F 23.2 °F 70% 30.42 in 10.0 mi SW 5.8 mph - N/A   Clear
3:15 AM 31.8 °F 25.4 °F 23.0 °F 70% 30.41 in 10.0 mi SSW 6.9 mph - N/A   Clear
3:35 AM 31.8 °F 26.2 °F 22.8 °F 69% 30.41 in 10.0 mi SSW 5.8 mph - N/A   Clear
3:55 AM 30.6 °F 24.7 °F 22.1 °F 71% 30.40 in 10.0 mi SSW 5.8 mph - N/A   Clear
4:15 AM 31.1 °F 23.7 °F 22.6 °F 71% 30.40 in 10.0 mi SSW 8.1 mph - N/A   Clear
4:35 AM 30.2 °F 23.4 °F 22.1 °F 72% 30.40 in 10.0 mi SSW 6.9 mph - N/A   Clear
4:55 AM 29.3 °F 23.2 °F 22.6 °F 76% 30.40 in 10.0 mi SSW 5.8 mph - N/A   Clear
5:15 AM 27.7 °F 21.3 °F 22.1 °F 80% 30.40 in 10.0 mi SW 5.8 mph - N/A   Clear
5:35 AM 28.9 °F 22.8 °F 22.6 °F 77% 30.40 in 10.0 mi SSW 5.8 mph - N/A   Clear
5:55 AM 30.2 °F 22.6 °F 23.0 °F 75% 30.40 in 10.0 mi SW 8.1 mph - N/A   Clear
6:15 AM 28.4 °F 21.2 °F 22.1 °F 77% 30.40 in 10.0 mi SSW 6.9 mph - N/A   Clear
6:35 AM 27.3 °F 19.9 °F 23.2 °F 84% 30.40 in 10.0 mi SSW 6.9 mph - N/A   Clear
6:55 AM 30.9 °F 23.5 °F 24.1 °F 76% 30.40 in 10.0 mi SW 8.1 mph - N/A   Clear
7:15 AM 30.9 °F 22.8 °F 23.9 °F 75% 30.39 in 10.0 mi SSW 9.2 mph - N/A   Clear
7:35 AM 31.5 °F 24.2 °F 23.9 °F 74% 30.39 in 10.0 mi SW 8.1 mph - N/A   Clear
7:55 AM 30.0 °F 23.2 °F 23.9 °F 78% 30.40 in 10.0 mi SW 6.9 mph - N/A   Clear
8:15 AM 32.0 °F 24.2 °F 24.8 °F 75% 30.39 in 10.0 mi SW 9.2 mph - N/A   Mostly Cloudy
8:35 AM 33.8 °F 25.8 °F 26.2 °F 74% 30.38 in 10.0 mi SSW 10.4 mph - N/A   Scattered Clouds
8:55 AM 35.8 °F 28.8 °F 26.8 °F 70% 30.39 in 10.0 mi SSW 9.2 mph - N/A   Mostly Cloudy
9:15 AM 35.6 °F 27.1 °F 27.5 °F 72% 30.38 in 10.0 mi SSW 12.7 mph - N/A   Mostly Cloudy
9:35 AM 38.5 °F 30.7 °F 28.0 °F 66% 30.38 in 10.0 mi SSW 12.7 mph - N/A   Scattered Clouds
9:55 AM 40.8 °F 33.7 °F 28.0 °F 60% 30.38 in 10.0 mi SW 12.7 mph 18.4 mph N/A   Clear
10:15 AM 43.0 °F 35.7 °F 28.2 °F 56% 30.38 in 10.0 mi SW 15.0 mph 19.6 mph N/A   Clear
10:35 AM 45.7 °F 37.8 °F 28.0 °F 50% 30.37 in 10.0 mi SW 20.7 mph 24.2 mph N/A   Clear
10:55 AM 47.3 °F - 26.8 °F 45% 30.36 in 10.0 mi SW 16.1 mph 25.3 mph N/A   Clear
11:15 AM 48.4 °F - 27.7 °F 45% 30.35 in 10.0 mi SSW 17.3 mph - N/A   Clear
11:35 AM 49.3 °F - 28.4 °F 45% 30.35 in 10.0 mi SW 17.3 mph 21.9 mph N/A   Clear
11:55 AM 51.4 °F - 28.2 °F 41% 30.34 in 10.0 mi SW 13.8 mph - N/A   Clear
12:15 PM 52.5 °F - 27.5 °F 38% 30.34 in 10.0 mi SSW 16.1 mph 21.9 mph N/A   Clear
12:35 PM 53.6 °F - 27.7 °F 37% 30.33 in 10.0 mi SW 16.1 mph 21.9 mph N/A   Clear
12:55 PM 54.5 °F - 27.9 °F 36% 30.31 in 10.0 mi SW 12.7 mph 21.9 mph N/A   Clear
1:15 PM 55.2 °F - 28.6 °F 36% 30.30 in 10.0 mi SSW 15.0 mph 23.0 mph N/A   Clear
1:35 PM 56.5 °F - 28.9 °F 35% 30.29 in 10.0 mi SW 19.6 mph 23.0 mph N/A   Clear
1:55 PM 56.8 °F - 29.3 °F 35% 30.27 in 10.0 mi SW 20.7 mph - N/A   Clear
2:15 PM 57.2 °F - 29.5 °F 35% 30.26 in 10.0 mi SW 11.5 mph 21.9 mph N/A   Clear
2:35 PM 58.3 °F - 29.8 °F 34% 30.24 in 10.0 mi SSW 18.4 mph 23.0 mph N/A   Clear
2:55 PM 57.9 °F - 28.9 °F 33% 30.23 in 10.0 mi SSW 17.3 mph 23.0 mph N/A   Clear
3:15 PM 58.3 °F - 29.5 °F 33% 30.21 in 10.0 mi SSW 16.1 mph 23.0 mph N/A   Clear
3:35 PM 58.6 °F - 29.8 °F 34% 30.20 in 10.0 mi SW 17.3 mph 24.2 mph N/A   Clear
3:55 PM 58.8 °F - 29.8 °F 33% 30.19 in 10.0 mi SSW 19.6 mph 26.5 mph N/A   Clear
4:15 PM 59.0 °F - 29.7 °F 33% 30.19 in 10.0 mi SSW 17.3 mph 24.2 mph N/A   Clear
4:35 PM 58.8 °F - 29.8 °F 33% 30.17 in 10.0 mi SSW 15.0 mph 23.0 mph N/A   Clear
4:55 PM 58.6 °F - 29.3 °F 33% 30.16 in 10.0 mi SSW 16.1 mph - N/A   Clear
5:15 PM 57.2 °F - 28.4 °F 33% 30.16 in 10.0 mi SSW 13.8 mph 18.4 mph N/A   Clear
5:35 PM 57.4 °F - 28.8 °F 34% 30.15 in 10.0 mi SSW 13.8 mph - N/A   Scattered Clouds
5:55 PM 56.3 °F - 28.2 °F 34% 30.14 in 10.0 mi SSW 11.5 mph - N/A   Clear
6:15 PM 54.5 °F - 27.9 °F 36% 30.13 in 10.0 mi SSW 9.2 mph 19.6 mph N/A   Clear
6:35 PM 52.5 °F - 27.7 °F 38% 30.13 in 10.0 mi SSW 9.2 mph - N/A   Clear
6:55 PM 49.6 °F - 28.2 °F 44% 30.13 in 10.0 mi SSW 6.9 mph - N/A   Clear
7:15 PM 48.4 °F - 28.2 °F 46% 30.13 in 10.0 mi SSW 6.9 mph - N/A   Clear
7:35 PM 48.0 °F - 28.2 °F 46% 30.13 in 10.0 mi SSW 9.2 mph - N/A   Clear
7:55 PM 47.8 °F - 28.0 °F 46% 30.13 in 10.0 mi SSW 9.2 mph - N/A   Clear
8:15 PM 48.6 °F - 28.2 °F 45% 30.13 in 10.0 mi SSW 8.1 mph - N/A   Mostly Cloudy
8:35 PM 46.6 °F - 28.2 °F 49% 30.12 in 10.0 mi SSW 10.4 mph - N/A   Scattered Clouds
8:55 PM 46.2 °F 41.7 °F 28.4 °F 50% 30.12 in 10.0 mi SSW 9.2 mph - N/A   Clear
9:15 PM 46.0 °F 40.6 °F 28.4 °F 50% 30.11 in 10.0 mi SSW 11.5 mph - N/A   Clear
9:35 PM 45.7 °F 40.6 °F 28.6 °F 51% 30.11 in 10.0 mi SSW 10.4 mph - N/A   Clear
9:55 PM 44.8 °F 39.9 °F 28.8 °F 53% 30.10 in 10.0 mi SSW 9.2 mph - N/A   Clear
10:15 PM 44.4 °F 39.0 °F 28.9 °F 55% 30.11 in 10.0 mi SW 10.4 mph - N/A   Clear
10:35 PM 42.8 °F 38.6 °F 28.9 °F 58% 30.11 in 10.0 mi SSW 6.9 mph - N/A   Clear
10:55 PM 41.5 °F 37.1 °F 29.1 °F 61% 30.11 in 10.0 mi SSW 6.9 mph - N/A   Clear
11:15 PM 41.4 °F 36.2 °F 28.9 °F 61% 30.10 in 10.0 mi SSW 8.1 mph - N/A   Clear
11:35 PM 41.2 °F 35.5 °F 29.3 °F 63% 30.09 in 10.0 mi SSW 9.2 mph - N/A   Clear
11:55 PM 42.3 °F 36.8 °F 29.3 °F 60% 30.08 in 10.0 mi SSW 9.2 mph - N/A   Clear